Regional Weather Roundup
Issued by NWS

Home | Current Version | Previous Version | Graphics & Text | Print | Product List | Glossary On
Versions: 1 2 3 4 5 6 7 8 9 10 11 12 13 14 15 16 17 18 19 20 21 22 23 24 25 26 27 28 29 30 31 32 33 34 35 36 37 38 39 40 41 42 43 44 45 46 47 48 49 50
000
ASUS45 KABQ 221401
RWRNM
NEW MEXICO REGIONAL WEATHER ROUNDUP
NATIONAL WEATHER SERVICE ALBUQUERQUE NM
700 AM MST WED FEB 22 2017

NOTE: "FAIR" MEANS FEW OR NO CLOUDS BELOW 12,000 FEET AGL WITH NO
       SIGNIFICANT WEATHER OR OBSTRUCTIONS TO VISION.

      THIS PRODUCT IS RELEASED AS TWO VERSIONS.  ONE VERSION NEAR
      THE TOP OF THE HOUR CONTAINING PRELIMINARY DATA FROM ALBUQUERQUE
      AND OTHER STATIONS.  A FINAL VERSION WITH ADDITIONAL DATA IS
      ISSUED ABOUT 10 MINUTES AFTER THE HOUR.

NMZ501-503-504-510>518-221500-
NORTHWEST PLATEAU/NORTHCENTRAL MOUNTAINS

CITY           SKY/WX    TMP DP  RH WIND       PRES   REMARKS
FARMINGTON     FAIR      38  36  92 NE7       30.10S WCI  33
LOS ALAMOS     FAIR      40  30  66 S5        30.17S
SANTA FE       FAIR      40  29  64 CALM      30.15S
TAOS             N/A     28  18  64 SE5       30.15S WCI  23
ANGEL FIRE     FAIR      29  25  87 SW6       30.16F WCI  23

$$
NMZ402-403-502-505>509-221500-
WESTCENTRAL MOUNTAINS/SOUTHWEST MOUNTAINS

CITY           SKY/WX    TMP DP  RH WIND       PRES   REMARKS
GALLUP         FAIR      33  32  96 CALM      30.16F
GRANTS         FAIR      39  33  81 CALM      30.17R
SILVER CITY    FAIR      47  36  65 N9        30.16F

$$
NMZ407-409-411-412-221500-
SOUTHERN DESERTS

CITY           SKY/WX    TMP DP  RH WIND       PRES   REMARKS
DEMING         FAIR      42  37  82 W7        30.14F
LAS CRUCES     FAIR      42  35  76 NW6       30.14S
HOLLOMAN AFB   FAIR      40  30  67 E3        30.14S
ALAMOGORDO     FAIR      43  30  61 SE5       30.12S
T OR C         FAIR      48  34  58 NW7       30.13S

$$
NMZ519>523-221500-
CENTRAL VALLEYS/CENTRAL HIGHLANDS

CITY           SKY/WX    TMP DP  RH WIND       PRES   REMARKS
ALBUQUERQUE    FAIR      45  34  65 E5        30.14F
DOUBLE EAGLE   PTCLDY    37  30  75 CALM      30.15F
MORIARTY ARPT  FAIR      33  29  86 E7        30.16S WCI  27
CLINES CORNERS FAIR      34  26  72 W13       30.17S WCI  25
BELEN          FAIR      41  32  71 S5        30.14S
SOCORRO        FAIR      37  34  89 E7        30.13F WCI  31

$$
NMZ524>526-539-540-221500-
SOUTHCENTRAL MOUNTAINS

CITY           SKY/WX    TMP DP  RH WIND       PRES   REMARKS
RUIDOSO        NOT AVBL

$$
NMZ527>531-221500-
NORTHEAST HIGHLANDS/NORTHEAST PLAINS

CITY           SKY/WX    TMP DP  RH WIND       PRES   REMARKS
RATON          FAIR      49  23  36 SW12G20   30.01F
CLAYTON        FAIR      46  30  53 W9        29.96R

$$
NMZ532>537-221500-
EASTCENTRAL PLAINS

CITY           SKY/WX    TMP DP  RH WIND       PRES   REMARKS
TUCUMCARI      FAIR      49  31  49 W12       29.98S
CANNON AFB     FAIR      54  34  46 W16       30.01S
CLOVIS AIRPORT FAIR      54  34  47 W17       30.00S

$$
NMZ028-029-538-221500-
SOUTHEAST PLAINS

CITY           SKY/WX    TMP DP  RH WIND       PRES   REMARKS
ROSWELL        FAIR      46  31  55 NW5         N/A
ARTESIA        FAIR      46  28  49 CALM      30.05R
CARLSBAD       FAIR      51  32  48 NW5       30.03S
HOBBS          CLEAR     48  30  49 W6        30.05R


$$




USA.gov is the U.S. government's official web portal to all federal, state and local government web resources and services.